Time,TemperatureF,DewpointF,PressureIn,WindDirection,WindDirectionDegrees,WindSpeedMPH,WindSpeedGustMPH,Humidity,HourlyPrecipIn,Conditions,Clouds,dailyrainin,SoftwareType,DateUTC
2013-04-18 00:00:00,44.7,43.6,30.01,ENE,60,0.0,9.0,96,0.00,,---,0.00,VWS V13.01,2013-04-18 04:00:00,
2013-04-18 00:30:00,44.7,43.9,29.95,ENE,75,0.0,7.0,97,0.01,,---,0.01,VWS V13.01,2013-04-18 04:30:00,
2013-04-18 01:00:00,44.4,43.6,29.91,East,100,0.0,12.0,97,0.03,,---,0.03,VWS V13.01,2013-04-18 05:00:00,
2013-04-18 01:30:00,44.6,44.1,29.93,ESE,122,0.0,11.0,98,0.03,,---,0.03,VWS V13.01,2013-04-18 05:30:00,
2013-04-18 02:00:00,45.0,44.5,29.90,ESE,112,0.0,8.0,98,0.03,,---,0.04,VWS V13.01,2013-04-18 06:00:00,
2013-04-18 02:30:00,45.2,44.9,29.87,ENE,71,0.0,10.0,99,0.09,,---,0.12,VWS V13.01,2013-04-18 06:30:00,
2013-04-18 03:00:00,45.1,44.8,29.88,NE,45,0.0,11.0,99,0.23,,---,0.26,VWS V13.01,2013-04-18 07:00:00,
2013-04-18 03:30:00,45.0,44.7,29.83,NE,34,0.0,7.0,99,0.39,,---,0.43,VWS V13.01,2013-04-18 07:30:00,
2013-04-18 04:00:00,45.0,44.7,29.82,NE,40,2.0,7.0,99,0.46,,---,0.58,VWS V13.01,2013-04-18 08:00:00,
2013-04-18 04:30:00,45.2,44.9,29.83,SE,136,0.0,8.0,99,0.52,,---,0.78,VWS V13.01,2013-04-18 08:30:00,
2013-04-18 05:00:00,45.3,45.3,29.75,East,100,0.0,0.0,100,0.52,,---,0.95,VWS V13.01,2013-04-18 09:00:00,
2013-04-18 05:30:00,45.8,45.5,29.80,ESE,110,0.0,1.0,99,0.51,,---,1.09,VWS V13.01,2013-04-18 09:30:00,
2013-04-18 06:00:00,46.5,46.5,29.72,SE,132,0.0,6.0,100,0.53,,---,1.31,VWS V13.01,2013-04-18 10:00:00,
2013-04-18 06:30:00,48.1,48.1,29.66,SSE,165,0.0,6.0,100,0.55,,---,1.50,VWS V13.01,2013-04-18 10:30:00,
2013-04-18 07:00:00,49.3,49.3,29.63,ESE,113,1.0,11.0,100,0.42,,---,1.51,VWS V13.01,2013-04-18 11:00:00,
2013-04-18 07:30:00,50.6,50.6,29.72,East,94,0.0,12.0,100,0.45,,---,1.76,VWS V13.01,2013-04-18 11:30:00,
2013-04-18 08:00:00,50.4,50.4,29.70,ESE,119,0.0,0.0,100,0.39,,---,1.89,VWS V13.01,2013-04-18 12:00:00,
2013-04-18 08:30:00,50.8,50.8,29.70,SE,138,0.0,0.0,100,0.47,,---,1.98,VWS V13.01,2013-04-18 12:30:00,
2013-04-18 09:00:00,51.1,51.1,29.63,SE,130,0.0,1.0,100,0.28,,---,2.04,VWS V13.01,2013-04-18 13:00:00,
2013-04-18 09:30:00,51.7,51.7,29.60,ESE,121,0.0,1.0,100,0.19,,---,2.08,VWS V13.01,2013-04-18 13:30:00,
2013-04-18 10:00:00,52.2,52.2,29.58,ESE,120,0.0,1.0,100,0.10,,---,2.08,VWS V13.01,2013-04-18 14:00:00,
2013-04-18 10:30:00,52.4,52.4,29.54,SE,125,0.0,1.0,100,0.04,,---,2.08,VWS V13.01,2013-04-18 14:30:00,
2013-04-18 11:00:00,53.7,53.7,29.52,SE,124,0.0,8.0,100,0.00,,---,2.08,VWS V13.01,2013-04-18 15:00:00,
2013-04-18 11:30:00,55.9,55.9,29.49,South,185,0.0,8.0,100,0.00,,---,2.08,VWS V13.01,2013-04-18 15:30:00,
2013-04-18 12:00:00,55.4,55.4,29.52,WNW,290,0.0,0.0,100,0.07,,---,2.15,VWS V13.01,2013-04-18 16:00:00,
2013-04-18 12:30:00,56.6,56.6,29.53,North,0,0.0,0.0,100,0.07,,---,2.15,VWS V13.01,2013-04-18 16:30:00,
2013-04-18 13:00:00,57.8,57.8,29.50,ENE,60,0.0,0.0,100,0.07,,---,2.15,VWS V13.01,2013-04-18 17:00:00,
2013-04-18 13:30:00,59.3,59.3,29.50,South,181,0.0,1.0,100,0.01,,---,2.16,VWS V13.01,2013-04-18 17:30:00,
2013-04-18 14:00:00,60.3,60.3,29.52,SSW,194,0.0,2.0,100,0.03,,---,2.18,VWS V13.01,2013-04-18 18:00:00,
2013-04-18 14:30:00,61.3,61.3,29.55,SSW,207,0.0,7.0,100,0.04,,---,2.19,VWS V13.01,2013-04-18 18:30:00,
2013-04-18 15:00:00,60.8,60.8,29.55,SE,126,1.0,9.0,100,0.03,,---,2.19,VWS V13.01,2013-04-18 19:00:00,
2013-04-18 15:30:00,60.5,60.5,29.56,SSW,203,6.0,10.0,100,0.01,,---,2.19,VWS V13.01,2013-04-18 19:30:00,
2013-04-18 16:00:00,61.3,61.0,29.54,South,188,0.0,12.0,99,0.00,,---,2.19,VWS V13.01,2013-04-18 20:00:00,
2013-04-18 16:30:00,61.4,61.1,29.55,South,187,0.0,9.0,99,0.00,,---,2.19,VWS V13.01,2013-04-18 20:30:00,
2013-04-18 17:00:00,61.8,61.5,29.50,SW,236,0.0,10.0,99,0.00,,---,2.19,VWS V13.01,2013-04-18 21:00:00,
2013-04-18 17:30:00,61.4,61.1,29.51,SSW,198,0.0,1.0,99,0.01,,---,2.20,VWS V13.01,2013-04-18 21:30:00,
2013-04-18 18:00:00,61.3,61.0,29.51,South,187,0.0,2.0,99,0.01,,---,2.20,VWS V13.01,2013-04-18 22:00:00,
2013-04-18 18:30:00,61.8,60.7,29.53,SW,223,0.0,16.0,96,0.01,,---,2.20,VWS V13.01,2013-04-18 22:30:00,
2013-04-18 19:00:00,61.8,60.4,29.52,South,183,0.0,13.0,95,0.00,,---,2.20,VWS V13.01,2013-04-18 23:00:00,
2013-04-18 19:30:00,61.5,59.8,29.45,SE,131,5.0,15.0,94,0.00,,---,2.20,VWS V13.01,2013-04-18 23:30:00,
2013-04-18 20:00:00,61.0,59.6,29.47,ESE,122,2.0,14.0,95,0.00,,---,2.20,VWS V13.01,2013-04-19 00:00:00,
2013-04-18 20:30:00,61.0,59.0,29.39,ESE,116,3.0,21.0,93,0.00,,---,2.20,VWS V13.01,2013-04-19 00:30:00,
2013-04-18 21:00:00,61.1,58.5,29.46,SSE,154,12.0,24.0,91,0.00,,---,2.20,VWS V13.01,2013-04-19 01:00:00,
2013-04-18 21:30:00,61.2,57.9,29.48,SSE,166,0.0,14.0,89,0.00,,---,2.20,VWS V13.01,2013-04-19 01:30:00,
2013-04-18 22:00:00,60.7,58.1,29.49,SSE,167,5.0,11.0,91,0.00,,---,2.20,VWS V13.01,2013-04-19 02:00:00,
2013-04-18 22:30:00,60.8,57.8,29.47,SSE,167,1.0,16.0,90,0.00,,---,2.20,VWS V13.01,2013-04-19 02:30:00,
2013-04-18 23:00:00,60.7,58.1,29.47,SSE,167,9.0,18.0,91,0.00,,---,2.20,VWS V13.01,2013-04-19 03:00:00,
2013-04-18 23:30:00,60.2,57.9,29.43,SE,141,0.0,17.0,92,0.00,,---,2.20,VWS V13.01,2013-04-19 03:30:00,